Location: Carnoy
(49.9849°N, 2.7558°E)
Time: 21:14:26
(UTC+00:00)

CORIOLIS - Pass Details

Date: 24 January 2020
Orbit: 818 x 839 km, 98.7° (Epoch: 17 February)

Event Time Altitude Azimuth Distance (km) Brightness Sun altitude
Rises 17:17:50 0° 166° (SSE) 3,351 7.4 -7.9°
Reaches altitude 10° 17:20:10 10° 167° (SSE) 2,420 6.7 -8.3°
Maximum altitude 17:25:32 80° 255° (WSW) 840 4.3 -9.1°
Drops below altitude 10° 17:30:55 10° 343° (NNW) 2,427 6.6 -9.9°
Sets 17:33:17 0° 345° (NNW) 3,362 7.3 -10.3°
